Back to catalog

IRIDIUM 33 DEB

AlivePO
NORAD 35488·DEBRIS·🇺🇸 United States

Launched Sep 14, 1997 from Baikonur Cosmodrome

Loading…

Next Passes (next 24 hours)

TLE

FreshSource: Space-Track

Epoch: Sep 14, 2026, 04:58 UTC

1 35488U 97051QJ  26257.20757144  .00005470  00000-0  58424-3 0  9994
2 35488  86.3297 173.3073 0025186 135.9366 224.3873 14.88384020923577

Track IRIDIUM 33 DEB in real time with AllMySat

Download on the App Store